Location: Avenches
(46.8809°N, 7.0410°E)
Time: 03:11:29
(UTC+00:00)

Cosmos 1269 Rocket - Pass Details

Date: 30 March 2020
Orbit: 773 x 779 km, 74.1° (Epoch: 04 June)

Event Time Altitude Azimuth Distance (km) Brightness Sun altitude
Rises 18:46:34 0° 193° (SSW) 3,237 7.2 -8.8°
Reaches altitude 10° 18:48:56 10° 191° (SSW) 2,315 6.4 -9.2°
Maximum altitude 18:54:10 71° 108° (ESE) 822 4.0 -10.1°
Drops below altitude 10° 18:59:27 10° 26° (NNE) 2,336 6.4 -10.9°
Sets 19:01:51 0° 24° (NNE) 3,269 7.2 -11.3°
